Tracking 29892 objects as of 21-Nov-2024
HD Live streaming from Space Station
objects crossing your sky now

FENGYUN 1C DEB

Track FENGYUN 1C DEB now!
10-day predictions


NORAD ID: 35089
Int'l Code: 1999-025DJR
Perigee: 817.3 km
Apogee: 861.7 km
Inclination: 98.6 °
Period: 101.6 minutes
Semi major axis: 7210 km
RCS: 0.0081 m2 (small)
Launch date: May 10, 1999
Source: People's Republic of China (PRC)
Launch site: Taiyaun Space Center, China (TSC)

Note: This is SATELLITE DEBRIS
Your satellite tracking list
Your tracking list is empty




NASA's NSSDC Master Catalog

Two Line Element Set (TLE):
1 35089U 99025DJR 24324.99830820  .00000929  00000-0  47252-3 0  9997
2 35089  98.5745 341.8674 0030829 107.0951 253.3606 14.17932628553778
Source of the keplerian elements: AFSPC